Location: Newark
(9.4667°S, 159.8167°E)
Time: 15:41:54
(UTC+00:00)

Courier 1B Rocket - Pass Details

Date: 27 November 2019
Orbit: 920 x 1202 km, 28.2° (Epoch: 05 December)

Event Time Altitude Azimuth Distance (km) Brightness Sun altitude
Rises 20:25:27 0° 251° (WSW) 3,714 7.6 21.3°
Reaches altitude 10° 20:28:17 10° 256° (WSW) 2,723 6.9 21.9°
Maximum altitude 20:34:31 48° 329° (NNW) 1,215 5.5 23.4°
Drops below altitude 10° 20:40:30 10° 42° (NE) 2,605 7.6 24.8°
Sets 20:43:10 0° 48° (NE) 3,539 8.3 25.4°
